Time,TemperatureF,DewpointF,PressureIn,WindDirection,WindDirectionDegrees,WindSpeedMPH,WindSpeedGustMPH,Humidity,HourlyPrecipIn,Conditions,Clouds,dailyrainin,SoftwareType,DateUTC
2013-03-12 00:05:00,45.0,44.5,29.65,West,270,1.7,-999.0,98,-99.99,,,0.00,Acu-Link.com,2013-03-12 04:05:00,
2013-03-12 00:20:00,44.4,43.9,29.67,South,180,2.2,-999.0,98,-99.99,,,0.02,Acu-Link.com,2013-03-12 04:20:00,
2013-03-12 00:35:00,44.1,43.6,29.67,SW,225,1.7,-999.0,98,-99.99,,,0.04,Acu-Link.com,2013-03-12 04:35:00,
2013-03-12 00:51:00,43.7,43.2,29.67,SSW,202,0.0,-999.0,98,-99.99,,,0.05,Acu-Link.com,2013-03-12 04:51:00,
2013-03-12 01:21:00,43.7,43.2,29.67,SE,135,0.0,-999.0,98,-99.99,,,0.05,Acu-Link.com,2013-03-12 05:21:00,
2013-03-12 01:37:00,43.3,42.8,29.67,SSE,157,1.1,-999.0,98,-99.99,,,0.06,Acu-Link.com,2013-03-12 05:37:00,
2013-03-12 01:52:00,43.3,42.8,29.68,SSW,202,1.7,-999.0,98,-99.99,,,0.06,Acu-Link.com,2013-03-12 05:52:00,
2013-03-12 02:07:00,42.8,42.3,29.68,South,180,2.2,-999.0,98,-99.99,,,0.06,Acu-Link.com,2013-03-12 06:07:00,
2013-03-12 02:23:00,42.4,41.9,29.69,SW,225,1.7,-999.0,98,-99.99,,,0.06,Acu-Link.com,2013-03-12 06:23:00,
2013-03-12 02:38:00,42.1,41.6,29.69,West,270,1.1,-999.0,98,-99.99,,,0.06,Acu-Link.com,2013-03-12 06:38:00,
2013-03-12 02:53:00,41.9,41.4,29.68,WSW,247,0.0,-999.0,98,-99.99,,,0.06,Acu-Link.com,2013-03-12 06:53:00,
2013-03-12 03:09:00,41.9,41.4,29.69,South,180,0.0,-999.0,98,-99.99,,,0.06,Acu-Link.com,2013-03-12 07:09:00,
2013-03-12 03:24:00,41.5,41.0,29.69,ESE,112,0.0,-999.0,98,-99.99,,,0.06,Acu-Link.com,2013-03-12 07:24:00,
2013-03-12 03:39:00,41.4,40.9,29.69,ENE,67,0.0,-999.0,98,-99.99,,,0.06,Acu-Link.com,2013-03-12 07:39:00,
2013-03-12 03:55:00,41.4,40.9,29.69,ENE,67,0.0,-999.0,98,-99.99,,,0.06,Acu-Link.com,2013-03-12 07:55:00,
2013-03-12 04:10:00,41.4,40.9,29.69,ENE,67,0.0,-999.0,98,-99.99,,,0.06,Acu-Link.com,2013-03-12 08:10:00,
2013-03-12 04:25:00,41.0,40.5,29.69,West,270,1.1,-999.0,98,-99.99,,,0.06,Acu-Link.com,2013-03-12 08:25:00,
2013-03-12 04:40:00,41.0,40.5,29.69,ENE,67,1.7,-999.0,98,-99.99,,,0.06,Acu-Link.com,2013-03-12 08:40:00,
2013-03-12 04:55:00,41.0,40.5,29.69,SW,225,0.0,-999.0,98,-99.99,,,0.06,Acu-Link.com,2013-03-12 08:55:00,
2013-03-12 05:10:00,40.6,40.1,29.70,NNE,22,1.7,-999.0,98,-99.99,,,0.06,Acu-Link.com,2013-03-12 09:10:00,
2013-03-12 05:26:00,40.1,39.6,29.71,NNW,337,0.0,-999.0,98,-99.99,,,0.07,Acu-Link.com,2013-03-12 09:26:00,
2013-03-12 05:41:00,39.9,39.4,29.71,SSE,157,1.1,-999.0,98,-99.99,,,0.07,Acu-Link.com,2013-03-12 09:41:00,
2013-03-12 06:12:00,39.6,39.1,29.71,SE,135,1.7,-999.0,98,-99.99,,,0.07,Acu-Link.com,2013-03-12 10:12:00,
2013-03-12 06:27:00,39.6,39.1,29.73,SSW,202,1.7,-999.0,98,-99.99,,,0.07,Acu-Link.com,2013-03-12 10:27:00,
2013-03-12 06:42:00,39.4,38.9,29.73,South,180,1.1,-999.0,98,-99.99,,,0.07,Acu-Link.com,2013-03-12 10:42:00,
2013-03-12 06:57:00,39.4,38.9,29.76,SSW,202,0.0,-999.0,98,-99.99,,,0.07,Acu-Link.com,2013-03-12 10:57:00,
2013-03-12 07:13:00,39.6,39.1,29.77,ENE,67,1.1,-999.0,98,-99.99,,,0.08,Acu-Link.com,2013-03-12 11:13:00,
2013-03-12 07:28:00,39.2,38.7,29.78,NNW,337,1.1,-999.0,98,-99.99,,,0.08,Acu-Link.com,2013-03-12 11:28:00,
2013-03-12 07:43:00,38.5,36.9,29.77,WNW,292,0.0,-999.0,94,-99.99,,,0.08,Acu-Link.com,2013-03-12 11:43:00,
2013-03-12 07:58:00,38.1,34.9,29.77,NNW,337,1.7,-999.0,88,-99.99,,,0.08,Acu-Link.com,2013-03-12 11:58:00,
2013-03-12 08:13:00,37.9,35.2,29.78,NW,315,0.0,-999.0,90,-99.99,,,0.08,Acu-Link.com,2013-03-12 12:13:00,
2013-03-12 08:29:00,38.1,37.6,29.78,NNW,337,0.0,-999.0,98,-99.99,,,0.08,Acu-Link.com,2013-03-12 12:29:00,
2013-03-12 08:44:00,38.1,34.9,29.78,East,90,1.1,-999.0,88,-99.99,,,0.08,Acu-Link.com,2013-03-12 12:44:00,
2013-03-12 08:59:00,38.3,35.3,29.79,WNW,292,1.7,-999.0,89,-99.99,,,0.08,Acu-Link.com,2013-03-12 12:59:00,
2013-03-12 09:15:00,39.2,35.7,29.79,WNW,292,0.0,-999.0,87,-99.99,,,0.08,Acu-Link.com,2013-03-12 13:15:00,
2013-03-12 09:30:00,39.4,35.0,29.79,NNW,337,1.7,-999.0,84,-99.99,,,0.08,Acu-Link.com,2013-03-12 13:30:00,
2013-03-12 09:45:00,39.6,33.6,29.80,NNW,337,0.0,-999.0,79,-99.99,,,0.08,Acu-Link.com,2013-03-12 13:45:00,
2013-03-12 10:15:00,41.4,34.4,29.81,NW,315,4.7,-999.0,76,-99.99,,,0.08,Acu-Link.com,2013-03-12 14:15:00,
2013-03-12 10:31:00,41.7,33.4,29.81,NW,315,3.2,-999.0,72,-99.99,,,0.08,Acu-Link.com,2013-03-12 14:31:00,
2013-03-12 11:01:00,43.3,34.2,29.82,NW,315,2.2,-999.0,70,-99.99,,,0.08,Acu-Link.com,2013-03-12 15:01:00,
2013-03-12 11:16:00,44.8,34.1,29.81,North,0,1.7,-999.0,66,-99.99,,,0.08,Acu-Link.com,2013-03-12 15:16:00,
2013-03-12 11:32:00,45.1,33.7,29.82,WNW,292,1.7,-999.0,64,-99.99,,,0.08,Acu-Link.com,2013-03-12 15:32:00,
2013-03-12 11:47:00,45.5,34.8,29.84,WNW,292,2.7,-999.0,66,-99.99,,,0.08,Acu-Link.com,2013-03-12 15:47:00,
2013-03-12 12:02:00,46.8,34.1,29.82,NNE,22,3.7,-999.0,61,-99.99,,,0.08,Acu-Link.com,2013-03-12 16:02:00,
2013-03-12 12:18:00,47.1,35.2,29.83,NNW,337,0.0,-999.0,63,-99.99,,,0.08,Acu-Link.com,2013-03-12 16:18:00,
2013-03-12 12:33:00,46.9,33.3,29.83,ESE,112,2.7,-999.0,59,-99.99,,,0.08,Acu-Link.com,2013-03-12 16:33:00,
2013-03-12 12:48:00,48.4,34.3,29.84,WNW,292,4.2,-999.0,58,-99.99,,,0.08,Acu-Link.com,2013-03-12 16:48:00,
2013-03-12 13:04:00,48.0,33.5,29.84,SSW,202,2.2,-999.0,57,-99.99,,,0.08,Acu-Link.com,2013-03-12 17:04:00,
2013-03-12 13:19:00,46.9,34.2,29.85,NNE,22,3.2,-999.0,61,-99.99,,,0.08,Acu-Link.com,2013-03-12 17:19:00,
2013-03-12 13:34:00,47.5,33.5,29.84,North,0,1.1,-999.0,58,-99.99,,,0.08,Acu-Link.com,2013-03-12 17:34:00,
2013-03-12 13:49:00,52.9,35.3,29.83,SSW,202,4.2,-999.0,51,-99.99,,,0.08,Acu-Link.com,2013-03-12 17:49:00,
2013-03-12 14:05:00,57.2,34.9,29.83,WNW,292,1.7,-999.0,43,-99.99,,,0.08,Acu-Link.com,2013-03-12 18:05:00,
2013-03-12 14:20:00,59.4,35.1,29.83,North,0,1.7,-999.0,40,-99.99,,,0.08,Acu-Link.com,2013-03-12 18:20:00,
2013-03-12 14:35:00,58.6,34.4,29.82,NNE,22,4.7,-999.0,40,-99.99,,,0.08,Acu-Link.com,2013-03-12 18:35:00,
2013-03-12 14:50:00,58.3,35.3,29.82,SSE,157,5.3,-999.0,42,-99.99,,,0.08,Acu-Link.com,2013-03-12 18:50:00,
2013-03-12 15:05:00,59.2,34.3,29.81,NNW,337,4.2,-999.0,39,-99.99,,,0.08,Acu-Link.com,2013-03-12 19:05:00,
2013-03-12 15:21:00,59.7,35.3,29.81,WSW,247,4.7,-999.0,40,-99.99,,,0.08,Acu-Link.com,2013-03-12 19:21:00,
2013-03-12 16:07:00,60.1,35.1,29.80,NW,315,2.7,-999.0,39,-99.99,,,0.08,Acu-Link.com,2013-03-12 20:07:00,
2013-03-12 16:22:00,56.1,36.7,29.80,SSW,202,5.8,-999.0,48,-99.99,,,0.08,Acu-Link.com,2013-03-12 20:22:00,
2013-03-12 16:37:00,58.8,35.2,29.80,ESE,112,3.7,-999.0,41,-99.99,,,0.08,Acu-Link.com,2013-03-12 20:37:00,
2013-03-12 16:53:00,57.0,35.3,29.79,WSW,247,4.2,-999.0,44,-99.99,,,0.08,Acu-Link.com,2013-03-12 20:53:00,
2013-03-12 17:08:00,57.7,35.4,29.79,West,270,3.2,-999.0,43,-99.99,,,0.08,Acu-Link.com,2013-03-12 21:08:00,
2013-03-12 17:23:00,57.2,34.3,29.80,South,180,1.1,-999.0,42,-99.99,,,0.08,Acu-Link.com,2013-03-12 21:23:00,
2013-03-12 17:38:00,57.4,35.7,29.81,South,180,3.7,-999.0,44,-99.99,,,0.08,Acu-Link.com,2013-03-12 21:38:00,
2013-03-12 17:53:00,56.5,34.9,29.81,SSE,157,4.7,-999.0,44,-99.99,,,0.08,Acu-Link.com,2013-03-12 21:53:00,
2013-03-12 18:09:00,53.8,34.0,29.81,SW,225,2.7,-999.0,47,-99.99,,,0.08,Acu-Link.com,2013-03-12 22:09:00,
2013-03-12 18:24:00,53.6,34.4,29.81,WNW,292,2.2,-999.0,48,-99.99,,,0.08,Acu-Link.com,2013-03-12 22:24:00,
2013-03-12 18:39:00,55.6,33.5,29.81,SSW,202,2.7,-999.0,43,-99.99,,,0.08,Acu-Link.com,2013-03-12 22:39:00,
2013-03-12 18:54:00,53.8,33.0,29.80,SSE,157,3.7,-999.0,45,-99.99,,,0.08,Acu-Link.com,2013-03-12 22:54:00,
2013-03-12 19:10:00,52.3,33.2,29.80,South,180,1.7,-999.0,48,-99.99,,,0.08,Acu-Link.com,2013-03-12 23:10:00,
2013-03-12 19:25:00,50.9,32.9,29.81,SSE,157,2.2,-999.0,50,-99.99,,,0.08,Acu-Link.com,2013-03-12 23:25:00,
2013-03-12 19:40:00,50.0,33.1,29.81,SSE,157,2.2,-999.0,52,-99.99,,,0.08,Acu-Link.com,2013-03-12 23:40:00,
2013-03-12 19:55:00,48.9,34.8,29.81,SSE,157,2.2,-999.0,58,-99.99,,,0.08,Acu-Link.com,2013-03-12 23:55:00,
2013-03-12 20:10:00,46.6,33.9,29.82,SW,225,0.0,-999.0,61,-99.99,,,0.08,Acu-Link.com,2013-03-13 00:10:00,
2013-03-12 20:41:00,43.9,34.0,29.83,West,270,0.0,-999.0,68,-99.99,,,0.08,Acu-Link.com,2013-03-13 00:41:00,
2013-03-12 21:12:00,41.7,34.7,29.83,West,270,0.0,-999.0,76,-99.99,,,0.08,Acu-Link.com,2013-03-13 01:12:00,
2013-03-12 21:27:00,40.3,34.3,29.84,West,270,0.0,-999.0,79,-99.99,,,0.08,Acu-Link.com,2013-03-13 01:27:00,
2013-03-12 21:42:00,39.6,34.6,29.84,West,270,0.0,-999.0,82,-99.99,,,0.08,Acu-Link.com,2013-03-13 01:42:00,
2013-03-12 21:57:00,38.5,34.7,29.85,West,270,0.0,-999.0,86,-99.99,,,0.08,Acu-Link.com,2013-03-13 01:57:00,
2013-03-12 22:13:00,38.3,34.2,29.85,SSE,157,0.0,-999.0,85,-99.99,,,0.08,Acu-Link.com,2013-03-13 02:13:00,
2013-03-12 22:28:00,37.9,33.2,29.85,WNW,292,0.0,-999.0,83,-99.99,,,0.08,Acu-Link.com,2013-03-13 02:28:00,
2013-03-12 22:43:00,38.1,33.4,29.84,NNW,337,3.2,-999.0,83,-99.99,,,0.08,Acu-Link.com,2013-03-13 02:43:00,
2013-03-12 22:58:00,39.9,32.3,29.85,South,180,0.0,-999.0,74,-99.99,,,0.08,Acu-Link.com,2013-03-13 02:58:00,
2013-03-12 23:14:00,39.7,31.4,29.86,West,270,0.0,-999.0,72,-99.99,,,0.08,Acu-Link.com,2013-03-13 03:14:00,
2013-03-12 23:29:00,39.4,31.1,29.86,West,270,0.0,-999.0,72,-99.99,,,0.08,Acu-Link.com,2013-03-13 03:29:00,
2013-03-12 23:45:00,39.9,30.9,29.89,South,180,0.0,-999.0,70,-99.99,,,0.08,Acu-Link.com,2013-03-13 03:45:00,